Location: Unspecified
(0.0000°N, 0.0000°E)
Time: 00:48:58
(UTC+00:00)

OPS 4682 DEB - Visible Passes

Search period start: 18 May 2026 00:00
Search period end: 28 May 2026 00:00
Orbit: 1262 x 1293 km, 90.3° (Epoch: 17 May)

Date Brightness Start Highest point End Pass type
(mag) Time Alt. Az. Time Alt. Az. Time Alt. Az.
18 May ? 21:36:59 10° NNW 21:38:47 18° NNW 21:38:47 18° NNW visible
19 May ? 19:52:30 10° NE 19:53:11 12° NE 19:53:11 12° NE visible
19 May ? 21:42:27 10° NNW 21:44:23 18° NW 21:44:23 18° NW visible
20 May ? 19:57:09 10° NE 19:58:47 16° NE 19:58:47 16° NE visible
20 May ? 21:48:00 10° NNW 21:49:59 17° NW 21:49:59 17° NW visible
21 May ? 20:01:54 10° NNE 20:04:25 21° NE 20:04:25 21° NE visible
21 May ? 21:53:41 10° NW 21:55:37 16° NW 21:55:37 16° NW visible
22 May ? 20:06:45 10° NNE 20:10:04 27° NE 20:10:04 27° NE visible
22 May ? 21:59:31 10° NW 22:01:16 14° WNW 22:01:16 14° WNW visible
23 May ? 20:11:39 10° NNE 20:15:43 34° NE 20:15:43 34° NE visible
23 May ? 22:05:39 10° NW 22:06:56 12° WNW 22:06:56 12° WNW visible
24 May ? 20:16:38 10° NNE 20:21:25 42° NNE 20:21:25 42° NNE visible
24 May ? 22:12:25 10° WNW 22:12:37 10° WNW 22:12:37 10° WNW visible
25 May ? 20:21:40 10° N 20:27:07 52° NNE 20:27:07 52° NNE visible
26 May ? 20:26:46 10° N 20:32:51 62° N 20:32:51 62° N visible
27 May ? 20:31:56 10° N 20:38:37 67° NW 20:38:37 67° NW visible
